Terminal Aerodrome Forecast
Issued by NWS

Home | Current Version | Previous Version | Text Only | Print | Product List | Glossary On
Versions: 1 2 3 4 5 6 7 8 9 10 11 12 13 14 15 16 17 18 19
000
FTUS44 KLZK 232300 RRA
TAFLLQ
TAF
KLLQ 232343Z 2400/2424 11007KT P6SM SCT250
     FM241500 18009KT P6SM SCT040 SCT250
     FM242000 20010G18KT P6SM VCSH SCT040 BKN080=

USA.gov is the U.S. government's official web portal to all federal, state and local government web resources and services.